Dewpoint
23 20 19 20 18 18 21 31 25 28 29 29 32 40 40 32 22 16 12 11 12 15 17 19 21 22 21 22 23 24 24 25 28 30 32 35 35 35 35 34 33 33 34 34
25 21 26 19 19 19 19 23 26 24 23 27 23 22 26 28 26 21 15 12 11 13 14 16 19 21 20 21 23 24 23 24 25 28 31 33 34 34 33 33 33 34 33 34
22 25 27 28 28 24 23 23 31 28 40 35 29 27 33 36 26 23 23 14 13 14 16 17 20 22 21 22 23 23 24 23 22 26 29 31 33 31 32 33 32 33 33 33
22 25 31 28 18 22 29 23 24 28 34 38 37 32 26 24 25 21 18 16 14 15 17 19 21 22 22 22 22 23 24 23 22 25 28 29 31 30 32 31 31 31 31 32
28 24 24 20 20 20 24 24 23 24 25 26 26 26 25 24 19 19 20 21 20 20 20 19 20 20 21 22 23 22 22 22 22 24 27 29 29 30 31 30 29 28 28 30
28 23 29 24 20 20 21 26 22 21 23 26 27 30 30 24 19 17 18 20 22 22 19 18 19 20 22 22 22 22 22 24 23 24 27 28 30 30 31 29 25 24 24 28
26 27 28 25 19 17 23 29 24 23 25 27 34 36 32 27 22 21 20 19 20 21 19 18 18 20 20 22 23 22 22 24 24 24 27 29 29 30 29 28 27 27 24 27
27 29 30 26 18 22 30 33 29 28 28 29 31 32 31 28 23 21 20 19 18 18 17 19 18 18 19 19 21 21 21 22 22 24 24 23 29 30 29 28 27 26 25 24
31 29 33 31 28 27 29 30 30 30 29 29 28 28 29 29 26 23 21 20 18 16 15 16 16 17 18 20 19 19 20 20 22 22 23 26 29 29 28 28 26 23 19 19
29 28 28 28 28 29 29 31 29 28 28 28 29 29 28 26 26 25 22 20 18 17 15 15 16 16 17 16 17 18 19 20 21 22 23 26 27 27 28 28 27 23 20 18
31 30 29 28 29 30 29 28 28 28 29 28 27 27 26 26 25 24 24 22 19 18 17 16 15 15 16 16 15 16 18 19 20 21 23 22 26 28 26 28 29 27 26 22
31 32 32 31 29 29 28 28 28 28 28 28 28 26 26 25 25 24 24 23 20 19 18 17 16 14 15 15 15 17 17 17 19 20 21 20 22 26 28 29 26 26 25 22
33 33 33 32 31 29 29 29 29 28 28 28 27 27 26 25 26 28 25 23 22 20 19 18 17 15 15 16 17 17 18 19 18 19 18 19 20 24 26 29 29 28 26 25
31 31 32 32 31 32 31 30 32 29 28 28 27 27 27 26 25 25 25 24 23 21 20 19 18 18 17 17 17 18 19 24 17 17 17 19 16 20 24 25 28 28 27 25
32 32 32 32 31 31 31 31 31 30 30 29 27 28 28 27 27 26 25 25 24 22 21 20 20 20 20 19 18 20 20 19 18 18 18 19 17 18 21 23 24 24 29 27
33 33 32 32 31 31 31 31 32 32 32 32 31 30 29 28 27 26 26 26 27 26 22 23 24 24 23 22 23 23 23 23 23 18 17 16 15 16 19 22 24 25 25 26
34 34 35 35 35 35 34 33 32 32 33 33 33 33 31 30 29 27 27 28 28 28 29 28 27 24 24 26 25 25 25 25 24 19 18 16 16 17 17 20 24 25 25 25
34 35 35 36 35 35 35 36 36 36 36 35 35 34 33 35 34 33 30 29 31 30 30 29 27 26 26 27 28 27 26 24 24 25 23 22 19 18 19 20 22 23 25 26
34 34 34 34 35 36 36 36 36 36 36 36 37 41 40 38 35 34 32 35 37 32 31 29 28 28 26 28 28 29 26 24 24 24 24 25 23 22 21 22 22 23 24 25
36 35 36 36 36 36 36 36 36 36 36 37 41 37 38 37 37 37 38 35 33 34 31 31 30 28 28 28 29 30 31 31 29 28 29 29 27 26 25 24 23 24 26 25
35 36 37 37 37 39 39 38 38 38 37 38 41 40 37 37 36 35 34 32 33 33 32 31 31 33 33 35 35 35 33 32 33 34 33 32 31 29 28 27 26 26 28 28
37 38 38 37 37 37 37 37 37 38 37 40 37 35 36 36 37 38 37 35 37 32 36 37 37 36 38 35 38 38 36 33 31 29 29 29 31 32 31 30 32 32 33 33
39 38 37 38 38 38 37 37 36 35 37 38 37 37 36 37 38 38 39 39 39 37 38 40 38 34 33 36 37 36 35 34 33 32 31 31 31 32 32 32 33 34 33 33
38 38 39 38 38 37 37 37 37 37 37 37 38 39 40 40 40 40 40 38 35 37 39 39 37 32 32 36 37 37 37 36 36 36 35 32 33 33 31 32 32 34 34 33
38 38 38 39 39 38 38 38 37 37 38 38 38 38 39 39 39 39 38 37 34 34 36 34 32 32 36 37 36 37 37 37 37 36 35 34 33 34 34 33 34 34 33 33
38 39 39 39 38 38 38 38 37 36 36 36 37 38 38 37 34 33 33 32 31 31 32 36 38 38 36 34 35 35 34 34 34 35 36 35 34 33 35 34 34 33 33 33
39 36 38 35 35 35 35 35 35 35 36 36 34 32 31 32 31 31 30 31 31 31 33 35 34 33 33 34 33 33 33 33 33 33 35 35 35 35 34 34 33 33 33 33
Lifted_Index
3 3 3 3 3 3 3 3 3 4 4 5 6 6 7 7 8 9 11 12 13 13 13 13 13 14 14 14 14 14 14 13 11 10 9 9 9 11 12 13 14 15 16 16
3 3 3 3 3 3 3 3 4 4 4 5 6 6 7 7 8 9 10 12 13 13 13 13 14 14 14 15 15 15 14 14 13 11 10 10 10 11 12 13 14 15 16 16
3 3 3 2 3 3 3 3 4 4 5 5 6 6 6 7 7 8 10 12 13 13 14 14 14 14 15 15 15 15 15 15 14 13 12 12 12 12 12 13 14 15 16 16
3 3 2 2 3 3 3 3 4 4 5 5 5 6 6 7 7 8 10 12 13 14 14 14 14 15 15 15 16 16 15 15 15 14 13 13 13 13 13 14 14 15 16 16
4 3 2 2 3 4 4 4 4 4 5 5 5 6 6 6 7 8 10 12 13 14 14 14 15 15 15 15 16 16 16 16 15 15 14 14 13 13 14 14 15 16 16 16
4 3 2 3 4 4 4 3 4 4 5 5 5 5 5 6 7 8 10 12 13 14 15 15 15 15 15 15 16 16 16 16 16 16 15 14 14 14 14 15 15 16 16 17
4 3 3 3 4 5 4 3 4 4 5 5 5 5 6 7 7 8 9 11 12 14 14 15 15 15 15 15 15 16 16 17 17 16 15 15 14 15 15 15 16 16 16 16
4 4 3 4 5 5 4 4 4 5 5 5 5 6 7 7 7 8 9 10 12 13 14 15 15 16 15 15 16 16 16 17 17 17 16 15 15 15 15 15 16 16 16 16
4 4 4 4 5 5 5 5 5 5 5 5 6 6 7 7 7 8 9 10 11 12 12 14 15 15 15 16 16 16 17 17 17 17 16 16 15 15 15 15 16 16 16 16
5 4 4 5 5 5 5 5 6 6 6 6 6 6 6 7 7 8 8 9 10 11 11 12 14 15 16 16 16 16 17 17 17 17 17 16 16 15 15 15 16 16 16 17
5 5 5 5 5 5 5 5 6 6 6 5 5 5 6 6 7 8 8 9 9 10 10 11 13 14 15 16 16 17 16 16 17 17 17 16 16 15 15 16 16 16 16 17
5 5 5 5 5 5 5 5 6 6 6 5 5 6 6 6 7 7 7 8 8 8 9 10 12 13 14 15 16 16 16 16 16 16 16 16 16 15 15 15 16 16 17 17
6 6 5 5 5 5 5 5 6 6 6 6 6 6 6 6 6 7 7 7 7 8 8 9 10 12 13 14 15 15 15 15 16 16 16 16 15 15 14 14 15 15 16 17
6 6 6 5 5 5 5 5 5 5 5 5 6 6 6 6 6 6 6 6 7 7 8 8 9 10 12 13 13 13 13 14 15 16 16 16 15 15 14 14 14 14 15 15
6 6 6 5 5 5 5 5 5 4 5 5 5 6 6 6 6 6 6 6 6 6 7 7 8 9 10 11 11 11 12 12 13 14 15 15 15 15 14 14 13 13 13 14
6 6 5 5 5 5 5 5 4 4 4 5 5 5 5 6 6 6 6 6 6 6 6 7 7 8 9 10 10 10 11 11 12 12 13 13 14 14 14 14 13 13 13 13
5 5 5 4 4 4 4 4 4 4 4 4 4 4 5 5 5 5 6 6 6 6 6 7 7 8 9 9 10 10 10 11 11 11 11 12 12 13 13 13 13 13 13 13
5 5 5 4 4 4 4 4 4 4 4 4 4 4 4 4 5 5 6 6 6 6 6 7 8 8 9 10 10 10 9 10 11 11 11 11 11 12 12 12 12 12 12 12
5 5 5 5 4 4 4 4 4 3 3 3 3 3 3 4 4 5 6 6 6 6 7 8 9 9 10 10 10 9 8 8 9 10 10 11 10 10 10 10 10 10 11 11
4 5 5 4 4 4 4 4 4 3 3 3 3 3 3 3 4 5 6 6 7 7 8 9 9 9 9 9 9 8 7 7 7 8 8 9 9 8 8 8 8 8 9 10
4 4 4 4 4 4 4 4 4 4 4 4 4 4 3 4 4 5 5 6 7 8 8 8 8 8 8 7 7 7 7 7 7 7 7 7 7 7 7 7 7 7 8 9
4 4 4 3 3 4 4 4 4 4 4 4 4 4 4 5 5 6 6 7 8 8 8 8 7 7 8 8 8 7 7 7 7 7 7 6 6 6 6 6 6 6 7 8
4 4 4 4 4 4 4 5 5 5 5 5 6 6 6 6 7 7 7 8 8 8 8 8 8 8 9 9 8 8 8 7 7 7 7 7 6 6 5 5 5 5 6 6
4 5 5 5 5 5 5 6 6 6 6 6 7 7 7 7 8 8 8 9 9 9 9 9 10 10 10 10 9 9 8 8 8 8 7 7 6 6 5 5 5 5 5 5
6 6 6 6 6 7 7 7 7 7 7 7 8 8 9 9 9 9 10 10 10 10 10 10 11 11 11 10 10 9 9 9 8 8 7 7 7 6 5 5 4 4 5 5
7 7 7 8 8 8 8 8 8 8 8 8 9 9 10 10 11 11 11 11 11 11 11 10 10 10 10 10 10 9 9 8 8 8 7 7 7 6 6 5 4 4 5 5
8 8 8 9 9 9 9 8 8 8 9 9 9 10 10 11 12 12 11 11 11 11 10 10 10 10 10 10 9 9 9 8 8 8 7 7 6 6 5 5 5 5 5 5